Back to catalog

COSMOS 595

AliveMilitaryLEO
NORAD 6852·PAYLOAD·🇷🇺 Russia

Launched Oct 2, 1973 from Plesetsk Cosmodrome

Loading…

Next Passes (next 24 hours)

TLE

FreshSource: Space-Track

Epoch: Sep 14, 2026, 11:52 UTC

1 06852U 73069H   26257.49486326 -.00000024  00000-0 -46043-4 0  9999
2 06852  73.9975 262.7321 0056246 330.5991 104.5827 12.55488698426745

Track COSMOS 595 in real time with AllMySat

Download on the App Store